Time,TemperatureF,DewpointF,PressureIn,WindDirection,WindDirectionDegrees,WindSpeedMPH,WindSpeedGustMPH,Humidity,HourlyPrecipIn,Conditions,Clouds,dailyrainin,SolarRadiationWatts/m^2,SoftwareType,DateUTC
2013-03-09 00:03:00,49.0,46.0,-100.00,NE,46,0.0,4.0,91,0.00,,,0.00,0.000000,,2013-03-09 05:03:00,
2013-03-09 00:11:00,47.0,45.0,-100.00,SW,220,0.0,2.0,94,0.00,,,0.00,0.000000,,2013-03-09 05:11:00,
2013-03-09 00:32:00,47.0,45.0,-100.00,SW,220,0.0,2.0,94,0.00,,,0.00,0.000000,,2013-03-09 05:32:00,
2013-03-09 00:43:00,47.0,45.0,-100.00,SW,220,0.0,2.0,94,0.00,,,0.00,0.000000,,2013-03-09 05:43:00,
2013-03-09 00:53:00,47.0,45.0,-100.00,SW,220,0.0,2.0,94,0.00,,,0.00,0.000000,,2013-03-09 05:53:00,
2013-03-09 01:02:00,47.0,45.0,-100.00,SW,220,0.0,2.0,94,0.00,,,0.00,0.000000,,2013-03-09 06:02:00,
2013-03-09 01:11:00,48.0,47.0,-100.00,NNE,22,0.0,0.0,95,0.00,,,0.00,0.000000,,2013-03-09 06:11:00,
2013-03-09 01:32:00,48.0,47.0,-100.00,NNE,22,0.0,0.0,95,0.00,,,0.00,0.000000,,2013-03-09 06:32:00,
2013-03-09 01:42:00,48.0,47.0,-100.00,NNE,22,0.0,0.0,95,0.00,,,0.00,0.000000,,2013-03-09 06:42:00,
2013-03-09 01:52:00,48.0,47.0,-100.00,NNE,22,0.0,0.0,95,0.00,,,0.00,0.000000,,2013-03-09 06:52:00,
2013-03-09 02:01:00,48.0,47.0,-100.00,NNE,22,0.0,0.0,95,0.00,,,0.00,0.000000,,2013-03-09 07:01:00,
2013-03-09 02:11:00,46.0,45.0,-100.00,NNE,27,0.0,2.0,95,0.00,,,0.00,0.000000,,2013-03-09 07:11:00,
2013-03-09 02:32:00,46.0,45.0,-100.00,NNE,27,0.0,2.0,95,0.00,,,0.00,0.000000,,2013-03-09 07:32:00,
2013-03-09 02:42:00,46.0,45.0,-100.00,NNE,27,0.0,2.0,95,0.00,,,0.00,0.000000,,2013-03-09 07:42:00,
2013-03-09 02:52:00,46.0,45.0,-100.00,NNE,27,0.0,2.0,95,0.00,,,0.00,0.000000,,2013-03-09 07:52:00,
2013-03-09 03:01:00,46.0,45.0,-100.00,NNE,27,0.0,2.0,95,0.00,,,0.00,0.000000,,2013-03-09 08:01:00,
2013-03-09 03:11:00,44.0,43.0,-100.00,NW,324,0.0,0.0,95,0.00,,,0.00,0.000000,,2013-03-09 08:11:00,
2013-03-09 03:42:00,44.0,43.0,-100.00,NW,324,0.0,0.0,95,0.00,,,0.00,0.000000,,2013-03-09 08:42:00,
2013-03-09 03:52:00,44.0,43.0,-100.00,NW,324,0.0,0.0,95,0.00,,,0.00,0.000000,,2013-03-09 08:52:00,
2013-03-09 04:02:00,44.0,43.0,-100.00,NW,324,0.0,0.0,95,0.00,,,0.00,0.000000,,2013-03-09 09:02:00,
2013-03-09 04:11:00,42.0,41.0,-100.00,ENE,61,0.0,0.0,95,0.00,,,0.00,0.000000,,2013-03-09 09:11:00,
2013-03-09 04:32:00,42.0,41.0,-100.00,ENE,61,0.0,0.0,95,0.00,,,0.00,0.000000,,2013-03-09 09:32:00,
2013-03-09 04:42:00,42.0,41.0,-100.00,ENE,61,0.0,0.0,95,0.00,,,0.00,0.000000,,2013-03-09 09:42:00,
2013-03-09 04:52:00,42.0,41.0,-100.00,ENE,61,0.0,0.0,95,0.00,,,0.00,0.000000,,2013-03-09 09:52:00,
2013-03-09 05:01:00,42.0,41.0,-100.00,ENE,61,0.0,0.0,95,0.00,,,0.00,0.000000,,2013-03-09 10:01:00,
2013-03-09 05:11:00,41.0,40.0,-100.00,WSW,242,0.0,0.0,96,0.00,,,0.00,0.000000,,2013-03-09 10:11:00,
2013-03-09 05:42:00,41.0,40.0,-100.00,WSW,242,0.0,0.0,96,0.00,,,0.00,0.000000,,2013-03-09 10:42:00,
2013-03-09 05:52:00,41.0,40.0,-100.00,WSW,242,0.0,0.0,96,0.00,,,0.00,0.000000,,2013-03-09 10:52:00,
2013-03-09 06:01:00,41.0,40.0,-100.00,WSW,242,0.0,0.0,96,0.00,,,0.00,0.000000,,2013-03-09 11:01:00,
2013-03-09 06:11:00,41.0,40.0,-100.00,NNW,344,0.0,0.0,96,0.00,,,0.00,0.000000,,2013-03-09 11:11:00,
2013-03-09 06:32:00,41.0,40.0,-100.00,NNW,344,0.0,0.0,96,0.00,,,0.00,0.000000,,2013-03-09 11:32:00,
2013-03-09 06:42:00,41.0,40.0,-100.00,NNW,344,0.0,0.0,96,0.00,,,0.00,0.000000,,2013-03-09 11:42:00,
2013-03-09 06:52:00,41.0,40.0,-100.00,NNW,344,0.0,0.0,96,0.00,,,0.00,0.000000,,2013-03-09 11:52:00,
2013-03-09 07:02:00,41.0,40.0,-100.00,NNW,344,0.0,0.0,96,0.00,,,0.00,0.000000,,2013-03-09 12:02:00,
2013-03-09 07:11:00,41.0,40.0,-100.00,NNW,345,0.0,0.0,96,0.00,,,0.00,6.000000,,2013-03-09 12:11:00,
2013-03-09 07:32:00,41.0,40.0,-100.00,NNW,345,0.0,0.0,96,0.00,,,0.00,6.000000,,2013-03-09 12:32:00,
2013-03-09 07:42:00,41.0,40.0,-100.00,NNW,345,0.0,0.0,96,0.00,,,0.00,6.000000,,2013-03-09 12:42:00,
2013-03-09 07:52:00,41.0,40.0,-100.00,NNW,345,0.0,0.0,96,0.00,,,0.00,6.000000,,2013-03-09 12:52:00,
2013-03-09 08:02:00,41.0,40.0,-100.00,NNW,345,0.0,0.0,96,0.00,,,0.00,6.000000,,2013-03-09 13:02:00,
2013-03-09 08:11:00,54.0,53.0,-100.00,NNW,343,0.0,0.0,95,0.00,,,0.00,149.000000,,2013-03-09 13:11:00,
2013-03-09 08:32:00,54.0,53.0,-100.00,NNW,343,0.0,0.0,95,0.00,,,0.00,149.000000,,2013-03-09 13:32:00,
2013-03-09 08:42:00,54.0,53.0,-100.00,NNW,343,0.0,0.0,95,0.00,,,0.00,149.000000,,2013-03-09 13:42:00,
2013-03-09 08:52:00,54.0,53.0,-100.00,NNW,343,0.0,0.0,95,0.00,,,0.00,149.000000,,2013-03-09 13:52:00,
2013-03-09 09:01:00,54.0,53.0,-100.00,NNW,343,0.0,0.0,95,0.00,,,0.00,149.000000,,2013-03-09 14:01:00,
2013-03-09 09:11:00,65.0,53.0,-100.00,NE,50,3.0,7.0,65,0.00,,,0.00,357.000000,,2013-03-09 14:11:00,
2013-03-09 09:32:00,65.0,53.0,-100.00,NE,50,3.0,7.0,65,0.00,,,0.00,357.000000,,2013-03-09 14:32:00,
2013-03-09 09:42:00,65.0,53.0,-100.00,NE,50,3.0,7.0,65,0.00,,,0.00,357.000000,,2013-03-09 14:42:00,
2013-03-09 09:52:00,65.0,53.0,-100.00,NE,50,3.0,7.0,65,0.00,,,0.00,357.000000,,2013-03-09 14:52:00,
2013-03-09 10:02:00,65.0,53.0,-100.00,NE,50,3.0,7.0,65,0.00,,,0.00,357.000000,,2013-03-09 15:02:00,
2013-03-09 10:11:00,72.0,52.0,-100.00,NE,49,4.0,8.0,49,0.00,,,0.00,558.000000,,2013-03-09 15:11:00,
2013-03-09 10:32:00,72.0,52.0,-100.00,NE,49,4.0,8.0,49,0.00,,,0.00,558.000000,,2013-03-09 15:32:00,
2013-03-09 10:42:00,72.0,52.0,-100.00,NE,49,4.0,8.0,49,0.00,,,0.00,558.000000,,2013-03-09 15:42:00,
2013-03-09 10:52:00,72.0,52.0,-100.00,NE,49,4.0,8.0,49,0.00,,,0.00,558.000000,,2013-03-09 15:52:00,
2013-03-09 11:01:00,72.0,52.0,-100.00,NE,49,4.0,8.0,49,0.00,,,0.00,558.000000,,2013-03-09 16:01:00,
2013-03-09 11:11:00,75.0,45.0,-100.00,NNE,33,4.0,10.0,35,0.00,,,0.00,717.000000,,2013-03-09 16:11:00,
2013-03-09 11:32:00,75.0,45.0,-100.00,NNE,33,4.0,10.0,35,0.00,,,0.00,717.000000,,2013-03-09 16:32:00,
2013-03-09 11:42:00,75.0,45.0,-100.00,NNE,33,4.0,10.0,35,0.00,,,0.00,717.000000,,2013-03-09 16:42:00,
2013-03-09 11:52:00,75.0,45.0,-100.00,NNE,33,4.0,10.0,35,0.00,,,0.00,717.000000,,2013-03-09 16:52:00,
2013-03-09 12:01:00,75.0,45.0,-100.00,NNE,33,4.0,10.0,35,0.00,,,0.00,717.000000,,2013-03-09 17:01:00,
2013-03-09 12:11:00,76.0,42.0,-100.00,ENE,65,4.0,12.0,30,0.00,,,0.00,652.000000,,2013-03-09 17:11:00,
2013-03-09 12:32:00,76.0,42.0,-100.00,ENE,65,4.0,12.0,30,0.00,,,0.00,652.000000,,2013-03-09 17:32:00,
2013-03-09 12:42:00,76.0,42.0,-100.00,ENE,65,4.0,12.0,30,0.00,,,0.00,652.000000,,2013-03-09 17:42:00,
2013-03-09 12:52:00,76.0,42.0,-100.00,ENE,65,4.0,12.0,30,0.00,,,0.00,652.000000,,2013-03-09 17:52:00,
2013-03-09 13:02:00,76.0,42.0,-100.00,ENE,65,4.0,12.0,30,0.00,,,0.00,652.000000,,2013-03-09 18:02:00,
2013-03-09 13:11:00,80.0,47.0,-100.00,NE,44,4.0,9.0,31,0.00,,,0.00,638.000000,,2013-03-09 18:11:00,
2013-03-09 13:32:00,80.0,47.0,-100.00,NE,44,4.0,9.0,31,0.00,,,0.00,638.000000,,2013-03-09 18:32:00,
2013-03-09 13:42:00,80.0,47.0,-100.00,NE,44,4.0,9.0,31,0.00,,,0.00,638.000000,,2013-03-09 18:42:00,
2013-03-09 13:52:00,80.0,47.0,-100.00,NE,44,4.0,9.0,31,0.00,,,0.00,638.000000,,2013-03-09 18:52:00,
2013-03-09 14:02:00,80.0,47.0,-100.00,NE,44,4.0,9.0,31,0.00,,,0.00,638.000000,,2013-03-09 19:02:00,
2013-03-09 14:11:00,77.0,46.0,-100.00,ENE,63,3.0,9.0,33,0.00,,,0.00,495.000000,,2013-03-09 19:11:00,
2013-03-09 14:42:00,77.0,46.0,-100.00,ENE,63,3.0,9.0,33,0.00,,,0.00,495.000000,,2013-03-09 19:42:00,
2013-03-09 14:52:00,77.0,46.0,-100.00,ENE,63,3.0,9.0,33,0.00,,,0.00,495.000000,,2013-03-09 19:52:00,
2013-03-09 15:02:00,77.0,46.0,-100.00,ENE,63,3.0,9.0,33,0.00,,,0.00,495.000000,,2013-03-09 20:02:00,
2013-03-09 15:11:00,76.0,45.0,-100.00,NE,41,3.0,10.0,33,0.00,,,0.00,446.000000,,2013-03-09 20:11:00,
2013-03-09 15:32:00,76.0,45.0,-100.00,NE,41,3.0,10.0,33,0.00,,,0.00,446.000000,,2013-03-09 20:32:00,
2013-03-09 15:42:00,76.0,45.0,-100.00,NE,41,3.0,10.0,33,0.00,,,0.00,446.000000,,2013-03-09 20:42:00,
2013-03-09 15:52:00,76.0,45.0,-100.00,NE,41,3.0,10.0,33,0.00,,,0.00,446.000000,,2013-03-09 20:52:00,
2013-03-09 16:02:00,76.0,45.0,-100.00,NE,41,3.0,10.0,33,0.00,,,0.00,446.000000,,2013-03-09 21:02:00,
2013-03-09 16:11:00,76.0,47.0,-100.00,ENE,72,2.0,7.0,36,0.00,,,0.00,209.000000,,2013-03-09 21:11:00,
2013-03-09 16:32:00,76.0,47.0,-100.00,ENE,72,2.0,7.0,36,0.00,,,0.00,209.000000,,2013-03-09 21:32:00,
2013-03-09 16:42:00,76.0,47.0,-100.00,ENE,72,2.0,7.0,36,0.00,,,0.00,209.000000,,2013-03-09 21:42:00,
2013-03-09 16:52:00,76.0,47.0,-100.00,ENE,72,2.0,7.0,36,0.00,,,0.00,209.000000,,2013-03-09 21:52:00,
2013-03-09 17:01:00,76.0,47.0,-100.00,ENE,72,2.0,7.0,36,0.00,,,0.00,209.000000,,2013-03-09 22:01:00,
2013-03-09 17:11:00,73.0,49.0,-100.00,NNE,27,1.0,6.0,43,0.00,,,0.00,149.000000,,2013-03-09 22:11:00,
2013-03-09 17:42:00,73.0,49.0,-100.00,NNE,27,1.0,6.0,43,0.00,,,0.00,149.000000,,2013-03-09 22:42:00,
2013-03-09 17:52:00,73.0,49.0,-100.00,NNE,27,1.0,6.0,43,0.00,,,0.00,149.000000,,2013-03-09 22:52:00,
2013-03-09 18:01:00,73.0,49.0,-100.00,NNE,27,1.0,6.0,43,0.00,,,0.00,149.000000,,2013-03-09 23:01:00,
2013-03-09 18:11:00,66.0,54.0,-100.00,NE,53,0.0,6.0,65,0.00,,,0.00,59.000000,,2013-03-09 23:11:00,
2013-03-09 18:32:00,66.0,54.0,-100.00,NE,53,0.0,6.0,65,0.00,,,0.00,59.000000,,2013-03-09 23:32:00,
2013-03-09 18:42:00,66.0,54.0,-100.00,NE,53,0.0,6.0,65,0.00,,,0.00,59.000000,,2013-03-09 23:42:00,
2013-03-09 18:52:00,66.0,54.0,-100.00,NE,53,0.0,6.0,65,0.00,,,0.00,59.000000,,2013-03-09 23:52:00,
2013-03-09 19:02:00,66.0,54.0,-100.00,NE,53,0.0,6.0,65,0.00,,,0.00,59.000000,,2013-03-10 00:02:00,
2013-03-09 19:11:00,67.0,53.0,-100.00,ENE,60,3.0,6.0,60,0.00,,,0.00,2.000000,,2013-03-10 00:11:00,
2013-03-09 19:32:00,67.0,53.0,-100.00,ENE,60,3.0,6.0,60,0.00,,,0.00,2.000000,,2013-03-10 00:32:00,
2013-03-09 19:43:00,67.0,53.0,-100.00,ENE,60,3.0,6.0,60,0.00,,,0.00,2.000000,,2013-03-10 00:43:00,
2013-03-09 19:52:00,67.0,53.0,-100.00,ENE,60,3.0,6.0,60,0.00,,,0.00,2.000000,,2013-03-10 00:52:00,
2013-03-09 20:01:00,67.0,53.0,-100.00,ENE,60,3.0,6.0,60,0.00,,,0.00,2.000000,,2013-03-10 01:01:00,
2013-03-09 20:11:00,62.0,53.0,-100.00,ENE,74,2.0,5.0,73,0.00,,,-99.99,0.000000,,2013-03-10 01:11:00,
2013-03-09 20:32:00,62.0,53.0,-100.00,ENE,74,2.0,5.0,73,0.00,,,-99.99,0.000000,,2013-03-10 01:32:00,
2013-03-09 20:42:00,62.0,53.0,-100.00,ENE,74,2.0,5.0,73,0.00,,,-99.99,0.000000,,2013-03-10 01:42:00,
2013-03-09 20:52:00,62.0,53.0,-100.00,ENE,74,2.0,5.0,73,0.00,,,-99.99,0.000000,,2013-03-10 01:52:00,
2013-03-09 21:01:00,62.0,53.0,-100.00,ENE,74,2.0,5.0,73,0.00,,,-99.99,0.000000,,2013-03-10 02:01:00,
2013-03-09 21:11:00,59.0,54.0,-100.00,ENE,69,1.0,4.0,83,0.00,,,-99.99,0.000000,,2013-03-10 02:11:00,
2013-03-09 21:42:00,59.0,54.0,-100.00,ENE,69,1.0,4.0,83,0.00,,,-99.99,0.000000,,2013-03-10 02:42:00,
2013-03-09 21:52:00,59.0,54.0,-100.00,ENE,69,1.0,4.0,83,0.00,,,-99.99,0.000000,,2013-03-10 02:52:00,
2013-03-09 22:02:00,59.0,54.0,-100.00,ENE,69,1.0,4.0,83,0.00,,,-99.99,0.000000,,2013-03-10 03:02:00,
2013-03-09 22:11:00,56.0,53.0,-100.00,ENE,76,0.0,4.0,90,0.00,,,0.00,0.000000,,2013-03-10 03:11:00,
2013-03-09 22:32:00,56.0,53.0,-100.00,ENE,76,0.0,4.0,90,0.00,,,0.00,0.000000,,2013-03-10 03:32:00,
2013-03-09 22:42:00,56.0,53.0,-100.00,ENE,76,0.0,4.0,90,0.00,,,0.00,0.000000,,2013-03-10 03:42:00,
2013-03-09 22:52:00,56.0,53.0,-100.00,ENE,76,0.0,4.0,90,0.00,,,0.00,0.000000,,2013-03-10 03:52:00,
2013-03-09 23:01:00,56.0,53.0,-100.00,ENE,76,0.0,4.0,90,0.00,,,0.00,0.000000,,2013-03-10 04:01:00,
2013-03-09 23:11:00,54.0,52.0,-100.00,NE,42,0.0,2.0,92,0.00,,,0.00,0.000000,,2013-03-10 04:11:00,
2013-03-09 23:32:00,54.0,52.0,-100.00,NE,42,0.0,2.0,92,0.00,,,0.00,0.000000,,2013-03-10 04:32:00,
2013-03-09 23:42:00,54.0,52.0,-100.00,NE,42,0.0,2.0,92,0.00,,,0.00,0.000000,,2013-03-10 04:42:00,
2013-03-09 23:52:00,54.0,52.0,-100.00,NE,42,0.0,2.0,92,0.00,,,0.00,0.000000,,2013-03-10 04:52:00,